| time (UTC) | temp C | wind direction | speed KPH | gust KPH | rain 1hr cm | rain 24hr cm | rain mn cm | humidity % | barometer mb |
| 20260906114527 | 20 | 121 | 0.0 | 4.8 | 0.00 | 0.00 | 0.00 | 94 | 1018.5 |
| 20260906113031 | 20 | 123 | 0.0 | 3.2 | 0.00 | 0.00 | 0.00 | 94 | 1018.7 |
| 20260906111533 | 20 | 123 | 0.0 | 6.4 | 0.00 | 0.00 | 0.00 | 94 | 1018.6 |
| 20260906110018 | 20 | 119 | 0.0 | 4.8 | 0.00 | 0.00 | 0.00 | 94 | 1018.5 |
| 20260906104526 | 20 | 119 | 0.0 | 4.8 | 0.00 | 0.00 | 0.00 | 94 | 1018.6 |
| 20260906103033 | 20 | 119 | 0.0 | 6.4 | 0.00 | 0.00 | 0.00 | 94 | 1018.7 |
| 20260906101507 | 20 | 94 | 0.0 | 0.0 | 0.00 | 0.00 | 0.00 | 94 | 1018.5 |
| 20260906100013 | 20 | 94 | 0.0 | 0.0 | 0.00 | 0.00 | 0.00 | 94 | 1018.5 |
| 20260906094518 | 20 | 94 | 0.0 | 0.0 | 0.00 | 0.00 | 0.00 | 93 | 1018.3 |
| 20260906093035 | 20 | 94 | 0.0 | 0.0 | 0.00 | 0.00 | 0.00 | 93 | 1018.1 |
| 20260906091528 | 20 | 94 | 0.0 | 6.4 | 0.00 | 0.00 | 0.00 | 93 | 1017.8 |
| 20260906090013 | 20 | 89 | 0.0 | 1.6 | 0.00 | 0.00 | 0.00 | 93 | 1017.4 |
| 20260906084517 | 20 | 86 | 0.0 | 6.4 | 0.00 | 0.00 | 0.00 | 93 | 1017.6 |
| 20260906083023 | 20 | 83 | 0.0 | 9.7 | 0.00 | 0.00 | 0.00 | 92 | 1017.4 |
| 20260906081533 | 21 | 82 | 0.0 | 11.3 | 0.00 | 0.00 | 0.00 | 92 | 1017.5 |
| 20260906080035 | 21 | 83 | 1.6 | 12.9 | 0.00 | 0.00 | 0.00 | 91 | 1017.6 |
| 20260906074534 | 21 | 107 | 0.0 | 9.7 | 0.00 | 0.00 | 0.00 | 91 | 1017.4 |
| 20260906073024 | 21 | 92 | 0.0 | 9.7 | 0.00 | 0.00 | 0.00 | 90 | 1017.5 |
| 20260906071532 | 21 | 89 | 1.6 | 6.4 | 0.00 | 0.00 | 0.00 | 90 | 1017.8 |
| 20260906070030 | 21 | 71 | 1.6 | 9.7 | 0.00 | 0.00 | 0.00 | 90 | 1017.7 |
| 20260906064536 | 21 | 74 | 0.0 | 9.7 | 0.00 | 0.00 | 0.00 | 90 | 1017.9 |
| 20260906063035 | 21 | 76 | 1.6 | 8.0 | 0.00 | 0.00 | 0.00 | 90 | 1017.9 |
| 20260906061523 | 21 | 82 | 0.0 | 6.4 | 0.00 | 0.00 | 0.00 | 90 | 1018.2 |
| 20260906060028 | 22 | 82 | 0.0 | 6.4 | 0.00 | 0.00 | 0.00 | 90 | 1018.1 |
| 20260906054533 | 22 | 82 | 0.0 | 11.3 | 0.00 | 0.00 | 0.00 | 90 | 1018.1 |
| 20260906053031 | 22 | 88 | 1.6 | 9.7 | 0.00 | 0.00 | 0.00 | 89 | 1017.9 |
| 20260906051516 | 22 | 91 | 0.0 | 6.4 | 0.00 | 0.00 | 0.00 | 89 | 1017.9 |
| 20260906050024 | 22 | 92 | 0.0 | 6.4 | 0.00 | 0.00 | 0.00 | 89 | 1017.6 |
| 20260906044533 | 22 | 89 | 0.0 | 4.8 | 0.00 | 0.00 | 0.00 | 88 | 1017.7 |
| 20260906043037 | 22 | 88 | 0.0 | 4.8 | 0.00 | 0.00 | 0.00 | 88 | 1017.6 |
| 20260906041541 | 23 | 80 | 1.6 | 6.4 | 0.00 | 0.00 | 0.00 | 88 | 1017.5 |
| 20260906040024 | 23 | 71 | 0.0 | 4.8 | 0.00 | 0.00 | 0.00 | 88 | 1017.6 |
| 20260906034529 | 23 | 72 | 0.0 | 8.0 | 0.00 | 0.00 | 0.00 | 88 | 1017.7 |
| 20260906033031 | 23 | 70 | 0.0 | 9.7 | 0.00 | 0.00 | 0.00 | 88 | 1017.8 |
| 20260906031532 | 23 | 72 | 6.4 | 14.5 | 0.00 | 0.00 | 0.00 | 87 | 1017.5 |
| 20260906030037 | 23 | 71 | 3.2 | 12.9 | 0.00 | 0.00 | 0.00 | 87 | 1017.3 |
| 20260906024523 | 24 | 69 | 1.6 | 6.4 | 0.00 | 0.00 | 0.00 | 86 | 1017.0 |
| 20260906023044 | 24 | 73 | 0.0 | 8.0 | 0.00 | 0.00 | 0.00 | 86 | 1016.9 |
| 20260906021532 | 24 | 77 | 1.6 | 8.0 | 0.00 | 0.00 | 0.00 | 86 | 1016.7 |
| 20260906020016 | 24 | 77 | 0.0 | 3.2 | 0.00 | 0.00 | 0.00 | 85 | 1016.6 |
| 20260906014532 | 24 | 78 | 1.6 | 6.4 | 0.00 | 0.00 | 0.00 | 85 | 1016.3 |
| 20260906013034 | 24 | 78 | 0.0 | 4.8 | 0.00 | 0.00 | 0.00 | 84 | 1016.1 |
| 20260906011506 | 25 | 80 | 0.0 | 4.8 | 0.00 | 0.00 | 0.00 | 83 | 1016.0 |
| 20260906010011 | 25 | 80 | 0.0 | 11.3 | 0.00 | 0.00 | 0.00 | 83 | 1015.9 |
| 20260906004533 | 25 | 88 | 0.0 | 6.4 | 0.00 | 0.00 | 0.00 | 83 | 1016.1 |
| 20260906003028 | 25 | 88 | 0.0 | 8.0 | 0.00 | 0.00 | 0.00 | 83 | 1016.0 |
| 20260906001535 | 25 | 95 | 3.2 | 9.7 | 0.00 | 0.00 | 0.00 | 82 | 1015.8 |
| 20260906000010 | 26 | 80 | 0.0 | 12.9 | 0.00 | 0.00 | 0.00 | 81 | 1015.7 |
| 20260905234535 | 26 | 71 | 0.0 | 12.9 | 0.00 | 0.00 | 0.00 | 81 | 1015.7 |
| 20260905233057 | 26 | 79 | 3.2 | 8.0 | 0.00 | 0.00 | 0.00 | 80 | 1015.6 |
| 20260905231549 | 26 | 79 | 1.6 | 14.5 | 0.00 | 0.00 | 0.00 | 79 | 1015.5 |
| 20260905230045 | 27 | 55 | 6.4 | 14.5 | 0.00 | 0.00 | 0.00 | 79 | 1015.5 |
| 20260905224518 | 27 | 56 | 8.0 | 16.1 | 0.00 | 0.00 | 0.00 | 79 | 1015.5 |
| 20260905223034 | 27 | 60 | 6.4 | 16.1 | 0.00 | 0.00 | 0.00 | 79 | 1015.2 |
| 20260905221533 | 27 | 47 | 4.8 | 16.1 | 0.00 | 0.00 | 0.00 | 78 | 1015.1 |
| 20260905220030 | 28 | 79 | 3.2 | 20.9 | 0.00 | 0.00 | 0.00 | 78 | 1014.8 |
| 20260905214531 | 28 | 57 | 11.3 | 24.1 | 0.00 | 0.00 | 0.00 | 77 | 1014.6 |
| 20260905213015 | 28 | 66 | 4.8 | 22.5 | 0.00 | 0.00 | 0.00 | 77 | 1014.8 |
| 20260905211537 | 28 | 56 | 8.0 | 19.3 | 0.00 | 0.00 | 0.00 | 78 | 1015.0 |
| 20260905210035 | 28 | 38 | 6.4 | 17.7 | 0.00 | 0.00 | 0.00 | 79 | 1015.1 |
| 20260905204531 | 28 | 70 | 4.8 | 17.7 | 0.00 | 0.00 | 0.00 | 79 | 1015.2 |
| 20260905203032 | 28 | 60 | 8.0 | 14.5 | 0.00 | 0.00 | 0.00 | 78 | 1015.5 |
| 20260905201525 | 28 | 71 | 8.0 | 20.9 | 0.00 | 0.00 | 0.00 | 79 | 1015.6 |
| 20260905200023 | 28 | 78 | 11.3 | 19.3 | 0.00 | 0.00 | 0.00 | 80 | 1015.8 |
| 20260905194537 | 27 | 51 | 9.7 | 19.3 | 0.00 | 0.00 | 0.00 | 82 | 1016.0 |
| 20260905193033 | 27 | 25 | 9.7 | 19.3 | 0.00 | 0.00 | 0.00 | 82 | 1016.0 |
| 20260905191533 | 27 | 49 | 6.4 | 20.9 | 0.00 | 0.00 | 0.00 | 82 | 1016.6 |
| 20260905190056 | 27 | 30 | 11.3 | 22.5 | 0.00 | 0.00 | 0.00 | 82 | 1016.8 |
| 20260905184537 | 28 | 24 | 9.7 | 22.5 | 0.00 | 0.00 | 0.00 | 82 | 1016.9 |
| 20260905183028 | 28 | 61 | 9.7 | 19.3 | 0.00 | 0.00 | 0.00 | 82 | 1017.0 |
| 20260905181531 | 28 | 43 | 11.3 | 24.1 | 0.00 | 0.00 | 0.00 | 81 | 1016.7 |
| 20260905180036 | 29 | 42 | 8.0 | 16.1 | 0.00 | 0.00 | 0.00 | 79 | 1016.9 |
| 20260905174544 | 29 | 49 | 4.8 | 9.7 | 0.00 | 0.00 | 0.00 | 79 | 1017.0 |
| 20260905173040 | 29 | 65 | 8.0 | 16.1 | 0.00 | 0.00 | 0.00 | 77 | 1016.8 |
| 20260905171531 | 29 | 55 | 3.2 | 12.9 | 0.00 | 0.00 | 0.00 | 78 | 1016.7 |
| 20260905170013 | 28 | 81 | 6.4 | 16.1 | 0.00 | 0.00 | 0.00 | 80 | 1016.6 |
| 20260905164535 | 28 | 42 | 6.4 | 12.9 | 0.00 | 0.00 | 0.00 | 80 | 1016.6 |
| 20260905163029 | 28 | 74 | 4.8 | 14.5 | 0.00 | 0.00 | 0.00 | 80 | 1016.7 |
| 20260905161534 | 28 | 71 | 4.8 | 14.5 | 0.00 | 0.00 | 0.00 | 82 | 1016.8 |
| 20260905160011 | 27 | 70 | 6.4 | 16.1 | 0.00 | 0.00 | 0.00 | 83 | 1016.7 |
| 20260905154533 | 27 | 59 | 8.0 | 16.1 | 0.00 | 0.00 | 0.00 | 81 | 1016.7 |
| 20260905153033 | 27 | 74 | 4.8 | 14.5 | 0.00 | 0.00 | 0.00 | 81 | 1016.8 |
| 20260905151537 | 26 | 38 | 3.2 | 11.3 | 0.00 | 0.00 | 0.00 | 82 | 1016.4 |
| 20260905150033 | 26 | 44 | 4.8 | 14.5 | 0.00 | 0.00 | 0.00 | 82 | 1016.3 |
| 20260905144513 | 26 | 52 | 1.6 | 8.0 | 0.00 | 0.00 | 0.00 | 82 | 1016.2 |
| 20260905143024 | 26 | 59 | 3.2 | 11.3 | 0.00 | 0.00 | 0.00 | 81 | 1016.0 |
| 20260905141528 | 26 | 78 | 3.2 | 8.0 | 0.00 | 0.00 | 0.00 | 83 | 1015.8 |
| 20260905140029 | 25 | 87 | 1.6 | 6.4 | 0.00 | 0.00 | 0.00 | 84 | 1015.9 |
| 20260905134533 | 24 | 103 | 0.0 | 0.0 | 0.00 | 0.00 | 0.00 | 88 | 1015.8 |
| 20260905133018 | 23 | 103 | 0.0 | 0.0 | 0.00 | 0.00 | 0.00 | 90 | 1015.6 |
| 20260905131541 | 22 | 103 | 0.0 | 0.0 | 0.00 | 0.00 | 0.00 | 91 | 1015.3 |
| 20260905130028 | 22 | 103 | 0.0 | 0.0 | 0.00 | 0.00 | 0.00 | 92 | 1015.3 |
| 20260905124539 | 21 | 103 | 0.0 | 0.0 | 0.00 | 0.00 | 0.00 | 92 | 1015.2 |
| 20260905123035 | 21 | 103 | 0.0 | 0.0 | 0.00 | 0.00 | 0.00 | 92 | 1015.0 |
| 20260905121524 | 21 | 103 | 0.0 | 0.0 | 0.00 | 0.00 | 0.00 | 93 | 1015.0 |
| 20260905120029 | 21 | 103 | 0.0 | 0.0 | 0.00 | 0.00 | 0.00 | 93 | 1014.8 |